Wind_Speed
32 32 33 34 36 38 38 38 38 38 39 38 38 39 39 39 38 38 37 38 37 36 36 36 37 37 38 38 38 39 39 39 38 37 35 35 37 38
31 30 30 31 33 35 37 37 37 38 38 38 38 37 37 38 38 37 37 36 35 35 35 36 37 38 38 38 39 39 38 38 38 36 36 35 35 37
29 28 28 28 30 32 35 36 37 38 38 38 38 38 38 38 36 36 36 36 35 34 34 34 36 36 37 39 39 39 40 39 39 38 37 37 37 37
29 27 26 26 28 30 32 34 35 36 36 36 36 36 36 35 35 35 34 34 34 34 34 35 35 37 38 39 40 41 43 43 43 42 41 40 39 38
28 26 24 24 24 26 28 30 31 32 32 33 34 33 33 33 34 34 34 32 32 32 32 32 33 35 37 37 39 41 43 44 45 45 45 44 43 43
28 25 23 22 22 23 24 26 28 29 30 31 31 31 33 34 33 33 32 31 31 30 29 29 29 30 32 34 36 36 37 39 42 43 44 44 45 44
28 25 23 22 21 22 22 23 25 26 27 29 30 32 32 32 30 28 27 26 25 23 23 24 24 23 23 24 26 27 29 31 32 35 38 41 42 42
27 25 23 22 22 21 22 24 26 26 27 28 31 31 29 28 26 24 23 21 20 19 17 15 14 15 16 17 18 20 21 23 25 28 30 33 35 37
26 23 22 22 22 22 23 24 26 27 27 28 28 27 25 22 20 17 15 14 13 12 11 11 12 12 13 14 16 17 19 21 23 26 28 31 34 36
26 22 21 21 21 22 23 24 24 24 24 24 22 20 19 17 16 14 13 11 10 9 10 10 11 12 13 14 16 18 20 22 24 27 30 33 35 38
25 22 20 19 19 22 23 23 22 22 22 20 18 17 15 14 13 11 10 9 9 8 9 9 10 11 12 14 16 18 20 23 26 28 31 34 37 40
24 21 19 19 18 19 20 21 20 19 18 16 15 14 13 11 10 10 9 9 8 7 8 8 10 11 12 14 16 18 21 23 26 29 32 36 39 42
24 22 20 18 18 18 18 17 17 16 15 14 13 12 12 11 10 9 8 8 7 7 7 7 9 10 12 14 16 18 21 24 27 30 32 36 39 42
24 21 20 19 18 18 17 17 16 15 14 14 13 12 11 10 9 9 8 7 7 6 6 7 8 10 11 13 15 17 20 22 25 28 31 33 35 38
23 21 20 19 18 18 17 17 16 16 15 14 14 13 11 10 10 9 8 7 6 6 6 6 7 9 11 12 14 16 19 21 24 26 28 30 31 33
24 23 22 21 20 19 18 17 17 16 15 14 14 13 12 11 10 9 8 8 7 6 6 6 7 8 9 12 14 17 19 21 24 26 28 29 30 31
25 23 23 22 21 19 18 17 17 16 15 14 14 13 12 11 11 10 9 8 8 7 6 6 6 7 9 11 14 17 19 22 24 26 28 29 30 31
25 24 23 22 21 20 19 17 16 16 15 14 13 13 12 12 12 11 11 10 9 8 7 7 7 8 9 12 14 17 19 21 24 27 29 30 31 31
26 25 24 23 21 20 19 17 16 15 15 14 14 14 13 13 13 13 12 12 11 9 8 8 8 9 11 13 15 18 20 22 24 26 29 30 32 32
27 25 24 23 21 20 18 17 16 16 15 14 14 15 15 15 15 15 14 13 12 11 10 10 11 12 13 15 17 19 21 22 24 26 29 31 32 33
27 25 24 22 21 19 18 17 16 15 15 15 15 16 16 16 16 16 15 15 14 13 13 13 14 14 16 18 19 21 22 23 25 27 30 32 34 35
28 26 24 22 20 19 17 16 15 15 14 15 16 17 17 17 17 17 17 16 16 16 16 16 17 18 19 20 22 23 24 25 26 28 30 32 34 35
27 25 23 22 20 18 17 16 15 14 14 15 16 17 18 18 18 18 18 18 18 19 19 20 20 21 22 23 24 26 27 28 30 31 32 33 36 37
Wind_Direction
293 284 276 268 263 260 258 257 257 259 260 260 260 260 260 260 259 258 257 257 256 254 252 251 247 245 242 238 236 237 237 239 242 245 247 246 243 242
298 289 279 270 263 259 257 256 256 257 258 259 260 260 259 259 259 256 255 256 253 252 250 250 249 244 238 236 235 235 233 234 238 241 242 240 240 240
301 293 283 272 264 258 256 254 255 255 257 257 257 257 257 256 254 253 253 253 250 250 252 252 250 245 241 237 235 234 232 233 235 237 239 239 239 238
303 296 286 275 264 258 255 252 253 253 253 254 254 253 252 251 249 249 250 251 249 252 255 256 254 251 248 243 238 237 236 235 235 236 239 239 240 240
304 297 288 278 266 258 252 250 250 249 248 249 248 246 246 246 245 246 249 251 251 252 254 256 256 253 248 244 241 241 240 238 237 237 239 240 240 242
303 296 289 280 268 258 251 247 247 247 246 244 243 242 242 242 243 245 247 248 249 251 251 254 254 253 249 247 244 243 244 243 242 242 243 244 245 247
300 296 289 279 268 259 254 248 246 244 242 240 239 239 237 238 240 241 242 242 244 247 249 252 252 250 250 250 249 248 249 249 250 250 250 251 253 255
295 292 287 279 266 257 252 248 243 241 239 237 236 236 235 235 236 237 236 237 238 241 245 246 248 250 252 254 254 255 257 259 260 260 260 262 263 264
289 286 280 275 263 253 248 245 239 235 233 233 231 229 230 232 234 235 232 229 229 234 241 248 254 259 263 265 266 267 268 268 268 268 268 268 268 267
280 278 273 268 260 253 244 240 235 233 229 227 228 229 227 224 223 223 219 218 224 232 243 253 259 264 267 271 273 274 275 275 275 275 274 273 272 271
269 268 264 260 257 251 240 237 235 231 226 222 219 217 213 209 208 209 211 216 223 232 243 255 263 270 274 278 281 282 283 283 282 281 280 279 277 276
258 256 253 249 247 242 237 233 229 221 215 210 204 199 197 198 199 202 208 214 223 236 246 258 268 275 281 285 288 290 291 291 290 288 287 285 283 281
247 244 241 238 236 234 232 226 216 207 197 191 188 188 189 192 197 202 207 215 226 239 254 266 277 285 291 296 299 301 301 300 298 296 293 291 288 285
235 232 228 225 224 221 216 209 200 193 187 184 184 186 189 194 200 206 211 219 230 244 260 276 289 297 302 306 309 310 310 310 309 307 303 300 297 293
223 219 216 213 210 206 202 196 192 187 183 183 185 188 193 199 205 209 213 221 231 245 264 281 293 303 311 317 321 324 325 326 326 323 320 316 312 307
213 209 208 206 202 198 194 190 187 185 186 189 192 196 201 205 208 210 215 223 231 243 260 279 294 309 319 327 332 335 337 338 339 337 333 328 323 318
205 203 201 197 192 189 188 186 187 189 192 195 199 203 207 210 211 213 217 221 226 236 252 273 292 309 323 331 337 340 341 342 343 343 340 337 332 326
196 194 191 188 187 187 188 189 191 194 197 200 204 209 211 212 213 215 218 221 227 237 253 269 287 305 318 327 333 338 340 342 343 344 344 342 339 334
189 187 187 186 187 189 191 193 196 199 201 205 209 211 213 215 217 219 222 227 231 240 252 267 281 295 309 320 328 333 336 337 339 341 343 343 341 339
184 184 185 186 188 191 194 198 201 203 206 210 214 217 218 220 222 225 228 233 239 248 258 270 280 293 304 314 322 327 329 331 334 336 339 341 341 340
182 183 184 186 189 192 197 202 204 207 212 217 221 223 224 225 227 230 235 240 247 256 265 273 281 290 299 308 314 318 322 325 328 331 334 337 339 339
179 181 183 186 189 193 198 203 207 212 217 222 226 228 229 231 234 238 243 249 255 262 270 276 282 287 294 301 306 311 315 318 321 325 329 332 334 336
178 180 182 185 190 194 200 205 211 217 224 228 231 233 235 237 241 245 251 257 264 270 276 280 283 287 291 297 302 307 311 314 317 321 325 328 330 332
Height
5731 5729 5728 5728 5729 5731 5734 5736 5738 5740 5741 5742 5744 5745 5747 5748 5750 5751 5753 5754 5756 5757 5759 5761 5763 5765 5768 5771 5775 5779 5782 5786 5789 5792 5794 5796 5799 5802
5723 5721 5719 5719 5720 5722 5724 5726 5728 5730 5731 5733 5734 5736 5737 5739 5740 5742 5743 5745 5747 5748 5750 5752 5754 5756 5759 5762 5766 5769 5773 5777 5780 5783 5785 5788 5790 5793
5716 5713 5711 5711 5711 5712 5714 5716 5718 5720 5722 5723 5724 5726 5728 5729 5731 5733 5735 5736 5738 5740 5742 5744 5746 5748 5750 5753 5757 5760 5764 5767 5771 5774 5776 5778 5781 5784
5709 5706 5704 5703 5703 5704 5706 5707 5709 5711 5713 5714 5715 5717 5719 5721 5722 5724 5726 5728 5730 5732 5735 5736 5738 5740 5742 5744 5748 5751 5754 5757 5761 5764 5766 5769 5771 5773
5703 5700 5698 5696 5695 5696 5697 5699 5701 5702 5704 5706 5707 5709 5711 5713 5715 5717 5719 5721 5723 5725 5727 5729 5730 5732 5734 5736 5739 5742 5745 5748 5751 5754 5756 5759 5761 5763
5696 5694 5692 5690 5689 5689 5690 5692 5693 5695 5697 5699 5700 5702 5704 5706 5708 5710 5712 5714 5717 5718 5720 5722 5723 5725 5727 5729 5732 5734 5737 5739 5741 5744 5746 5749 5751 5753
5690 5687 5685 5684 5683 5684 5684 5685 5687 5688 5690 5692 5694 5697 5698 5701 5702 5704 5706 5708 5711 5712 5714 5716 5718 5719 5721 5723 5725 5727 5730 5732 5734 5736 5738 5740 5742 5744
5684 5681 5679 5678 5677 5678 5679 5680 5682 5683 5685 5687 5689 5691 5693 5696 5697 5699 5702 5704 5706 5708 5710 5712 5714 5715 5717 5719 5721 5723 5725 5726 5728 5729 5731 5732 5734 5735
5677 5675 5674 5673 5672 5673 5674 5675 5676 5678 5680 5682 5684 5686 5689 5691 5693 5695 5698 5700 5703 5705 5707 5709 5711 5712 5714 5715 5717 5719 5720 5721 5722 5723 5724 5725 5726 5726
5671 5670 5669 5668 5668 5668 5670 5671 5672 5674 5676 5678 5680 5682 5685 5688 5690 5693 5695 5698 5700 5702 5704 5707 5708 5709 5711 5712 5713 5714 5715 5715 5716 5716 5716 5716 5716 5716
5664 5664 5664 5663 5664 5664 5666 5667 5669 5670 5672 5674 5677 5680 5683 5685 5688 5691 5694 5696 5698 5700 5702 5704 5705 5706 5707 5708 5709 5709 5709 5709 5709 5708 5707 5707 5705 5704
5657 5657 5658 5659 5660 5661 5662 5663 5665 5667 5669 5672 5675 5678 5681 5684 5687 5690 5693 5695 5697 5698 5700 5701 5702 5703 5704 5704 5704 5703 5703 5702 5701 5700 5698 5696 5694 5692
5650 5651 5652 5654 5655 5657 5659 5661 5663 5665 5667 5670 5673 5677 5680 5683 5686 5689 5691 5693 5695 5696 5697 5699 5699 5700 5700 5700 5699 5698 5697 5695 5693 5691 5689 5686 5683 5680
5643 5645 5647 5649 5651 5654 5656 5658 5661 5664 5667 5670 5673 5676 5679 5682 5685 5687 5689 5691 5692 5694 5695 5696 5696 5696 5696 5695 5694 5693 5691 5689 5686 5683 5679 5676 5672 5668
5637 5640 5642 5645 5648 5651 5653 5656 5660 5663 5666 5669 5672 5675 5678 5681 5683 5685 5687 5689 5690 5691 5692 5693 5693 5693 5692 5691 5690 5688 5686 5683 5679 5675 5671 5666 5661 5656
5631 5634 5638 5642 5645 5648 5652 5655 5659 5662 5665 5668 5671 5674 5677 5679 5681 5683 5685 5686 5688 5689 5689 5690 5690 5690 5689 5688 5686 5683 5680 5677 5673 5668 5664 5658 5653 5647
5626 5630 5634 5639 5643 5647 5650 5654 5658 5661 5664 5667 5670 5673 5675 5677 5679 5681 5683 5684 5686 5686 5687 5687 5687 5686 5685 5684 5682 5679 5676 5672 5668 5663 5658 5653 5647 5641
5622 5627 5632 5636 5641 5645 5649 5653 5657 5660 5663 5666 5668 5671 5673 5675 5677 5679 5681 5682 5683 5684 5684 5684 5684 5683 5682 5680 5678 5675 5672 5668 5664 5659 5654 5648 5641 5635
5618 5624 5630 5635 5640 5644 5648 5652 5655 5659 5661 5664 5666 5669 5671 5673 5675 5677 5678 5679 5680 5681 5681 5680 5680 5679 5678 5677 5674 5671 5667 5663 5659 5654 5649 5643 5637 5630
5616 5622 5628 5633 5638 5643 5647 5651 5654 5657 5660 5662 5664 5666 5669 5671 5672 5674 5675 5676 5677 5677 5677 5676 5676 5675 5673 5672 5669 5666 5662 5658 5654 5649 5644 5638 5632 5625
5615 5621 5627 5632 5637 5641 5645 5649 5652 5655 5658 5660 5662 5664 5666 5668 5669 5671 5672 5673 5673 5673 5673 5672 5671 5670 5668 5666 5664 5660 5657 5653 5648 5644 5638 5632 5626 5619
5613 5619 5625 5630 5635 5640 5644 5647 5650 5653 5655 5657 5659 5661 5663 5664 5666 5667 5668 5668 5669 5668 5668 5667 5666 5664 5662 5660 5657 5654 5651 5647 5643 5638 5633 5627 5621 5614
5613 5619 5624 5629 5634 5638 5642 5645 5648 5650 5652 5654 5656 5658 5659 5660 5662 5663 5663 5663 5663 5663 5662 5661 5660 5658 5656 5653 5651 5647 5644 5640 5635 5631 5627 5621 5615 5608